カタログに戻る

STARLINK-5783

運用中通信VLEO
NORAD 56022·PAYLOAD·🇺🇸 United States

打ち上げ Mar 24, 2023 から Cape Canaveral Space Force Station

Loading…

次のパス (今後24時間)

TLE

最新Source: CelesTrak SupGP

元期: Sep 15, 2026, 02:13 UTC

1 56022C 23042AN  26258.09284722 -.00020373  00000+0 -73796-3 0  2582
2 56022  43.0016  55.1991 0001659 254.2737 213.4234 15.27586488    16

AllMySatでSTARLINK-5783をリアルタイム追跡

Download on the App Store